Date String (YYYY-MM-DD hh:mm:ss) UTC,Instrument flags,Ambient pressure (hPa),Sample flow (lpm),Bypass flow (lpm),Sample temperature (°C),Ambient temperature (°C),ASC tube jacket temperature (°C),LED temperature (°C),Box temperature (°C),Sample RH (%),Span deviation,Mass concentration (μg/m³),Mass concentration (μg/m³),Mass concentration (μg/m³)
DateTimeUTC,F1_M11,P_M11,Q1_M11,Q2_M11,T1_M11,T2_M11,T3_M11,T4_M11,T5_M11,U1_M11,ZSPAN_M11,X0_M11,X2_M11,X1_M11
2021-12-27 12:00:00,,0816.8,4.99,0.00,21.7,21.2,00.0,30.6,23.3,09.8,0000.0,0008.97,0002.15,0000.96
2021-12-27 12:01:00,,0816.9,5.00,0.00,21.7,21.2,00.0,30.6,23.3,09.8,0000.0,0008.79,0002.10,0000.98
2021-12-27 12:02:00,,0816.8,5.01,0.00,21.7,21.1,00.0,30.6,23.3,09.8,0000.0,0008.53,0002.05,0000.99
2021-12-27 12:03:00,,0816.8,4.99,0.00,21.7,21.1,00.0,30.6,23.3,09.8,0000.0,0008.70,0002.12,0001.00
2021-12-27 12:04:00,,0817.2,5.00,0.00,21.6,21.0,00.0,30.6,23.3,09.8,0000.0,0008.21,0002.11,0001.00
2021-12-27 12:05:00,,0817.0,5.01,0.00,21.6,21.0,00.0,30.6,23.2,09.8,0000.0,0008.08,0002.15,0001.01
2021-12-27 12:06:00,,0817.1,4.99,0.00,21.6,21.0,00.0,30.6,23.2,09.8,0000.0,0008.63,0002.27,0001.02
2021-12-27 12:07:00,,0816.8,4.99,0.00,21.6,21.0,00.0,30.6,23.2,09.8,0000.0,0008.38,0002.32,0001.04
2021-12-27 12:08:00,,0816.9,5.00,0.00,21.6,21.0,00.0,30.6,23.2,09.8,0000.0,0007.87,0002.38,0001.05
2021-12-27 12:09:00,,0816.8,5.00,0.00,21.6,20.9,00.0,30.6,23.2,09.8,0000.0,0007.97,0002.45,0001.06
2021-12-27 12:10:00,,0816.8,4.99,0.00,21.6,20.9,00.0,30.6,23.2,09.8,0000.0,0007.94,0002.51,0001.07
2021-12-27 12:11:00,,0816.8,5.01,0.00,21.6,21.0,00.0,30.6,23.2,09.9,0000.0,0008.26,0002.50,0001.07
2021-12-27 12:12:00,,0816.9,5.00,0.00,21.7,21.8,00.0,30.6,23.4,09.9,0000.0,0009.68,0002.55,0001.08
2021-12-27 12:13:00,,0816.9,5.00,0.00,21.8,22.6,00.0,30.7,23.7,09.8,0000.0,0010.64,0002.63,0001.09
2021-12-27 12:14:00,,0816.8,5.00,0.00,22.0,22.8,00.0,30.7,23.9,09.7,0000.0,0010.73,0002.62,0001.09
2021-12-27 12:15:00,,0816.8,5.00,0.00,22.0,22.6,00.0,30.7,23.9,09.7,0000.0,0010.72,0002.66,0001.10
2021-12-27 12:16:00,,0816.9,5.00,0.00,22.0,22.4,00.0,30.8,23.9,09.6,0000.0,0010.53,0002.65,0001.11
2021-12-27 12:17:00,,0817.0,5.00,0.00,22.0,22.1,00.0,30.8,23.8,09.6,0000.0,0010.17,0002.62,0001.11
2021-12-27 12:18:00,,0817.0,5.01,0.00,22.0,21.9,00.0,30.8,23.7,09.7,0000.0,0010.25,0002.67,0001.14
2021-12-27 12:19:00,,0817.1,5.00,0.00,22.0,21.7,00.0,30.8,23.6,09.8,0000.0,0010.57,0002.71,0001.18
2021-12-27 12:20:00,,0816.9,5.00,0.00,21.9,21.6,00.0,30.8,23.6,10.0,0000.0,0010.59,0002.67,0001.21
2021-12-27 12:21:00,,0817.0,4.99,0.00,21.9,21.5,00.0,30.8,23.5,10.1,0000.0,0010.30,0002.66,0001.25
2021-12-27 12:22:00,,0817.2,5.01,0.00,21.9,21.4,00.0,30.8,23.5,10.1,0000.0,0010.61,0002.73,0001.29
2021-12-27 12:23:00,,0816.9,5.00,0.00,21.9,21.3,00.0,30.8,23.5,10.0,0000.0,0009.68,0002.78,0001.30
2021-12-27 12:24:00,,0816.9,5.00,0.00,21.8,21.3,00.0,30.8,23.4,10.0,0000.0,0008.70,0002.85,0001.32
2021-12-27 12:25:00,,0816.9,5.00,0.00,21.8,21.2,00.0,30.8,23.4,09.9,0000.0,0008.91,0002.89,0001.34
2021-12-27 12:26:00,,0816.9,4.99,0.00,21.8,21.2,00.0,30.8,23.4,09.9,0000.0,0009.05,0002.90,0001.35
2021-12-27 12:27:00,,0817.0,5.01,0.00,21.8,21.1,00.0,30.8,23.3,10.0,0000.0,0009.22,0002.99,0001.36
2021-12-27 12:28:00,,0817.2,4.99,0.00,21.7,21.1,00.0,30.8,23.3,10.0,0000.0,0009.40,0003.01,0001.38
2021-12-27 12:29:00,,0816.8,5.00,0.00,21.7,21.1,00.0,30.8,23.3,09.8,0000.0,0009.44,0002.93,0001.37
2021-12-27 12:30:00,,0816.9,5.00,0.00,21.7,21.0,00.0,30.8,23.3,09.8,0000.0,0009.22,0002.92,0001.34
2021-12-27 12:31:00,,0817.2,4.99,0.00,21.7,21.3,00.0,30.8,23.4,09.7,0000.0,0008.87,0002.90,0001.32
2021-12-27 12:32:00,,0817.0,5.00,0.00,21.8,22.1,00.0,30.8,23.6,09.6,0000.0,0009.13,0002.90,0001.29
2021-12-27 12:33:00,,0816.8,5.00,0.00,22.0,22.7,00.0,30.9,23.9,09.7,0000.0,0008.72,0002.79,0001.26
2021-12-27 12:34:00,,0816.9,5.00,0.00,22.1,22.8,00.0,30.9,24.0,09.7,0000.0,0008.70,0002.74,0001.25
2021-12-27 12:35:00,,0816.9,5.00,0.00,22.1,22.6,00.0,30.9,24.0,09.8,0000.0,0009.01,0002.69,0001.26
2021-12-27 12:36:00,,0816.9,5.01,0.00,22.1,22.4,00.0,30.9,23.9,09.9,0000.0,0008.73,0002.63,0001.26
2021-12-27 12:37:00,,0816.8,4.99,0.00,22.1,22.2,00.0,30.9,23.9,09.9,0000.0,0008.47,0002.59,0001.25
2021-12-27 12:38:00,,0816.8,4.99,0.00,22.1,22.0,00.0,30.9,23.8,09.9,0000.0,0008.72,0002.54,0001.25
2021-12-27 12:39:00,,0816.9,5.01,0.00,22.1,21.8,00.0,31.0,23.8,09.9,0000.0,0009.11,0002.50,0001.25
2021-12-27 12:40:00,,0816.9,4.99,0.00,22.1,21.7,00.0,31.0,23.7,09.8,0000.0,0009.38,0002.51,0001.25
2021-12-27 12:41:00,,0816.9,5.01,0.00,22.1,21.6,00.0,31.0,23.7,09.8,0000.0,0009.49,0002.57,0001.27
2021-12-27 12:42:00,,0817.4,4.99,0.00,22.0,21.5,00.0,31.0,23.7,09.7,0000.0,0009.37,0002.64,0001.29
2021-12-27 12:43:00,,0816.9,5.01,0.00,22.0,21.5,00.0,31.0,23.7,09.7,0000.0,0009.19,0002.67,0001.31
2021-12-27 12:44:00,,0817.0,4.99,0.00,22.0,21.4,00.0,31.0,23.7,09.6,0000.0,0009.26,0002.75,0001.32
2021-12-27 12:45:00,,0816.9,5.01,0.00,22.0,21.3,00.0,31.0,23.6,09.6,0000.0,0009.03,0002.78,0001.34
2021-12-27 12:46:00,,0817.1,4.99,0.00,21.9,21.3,00.0,31.0,23.5,09.7,0000.0,0008.99,0002.82,0001.34
2021-12-27 12:47:00,,0816.9,5.00,0.00,21.9,21.2,00.0,30.9,23.5,09.8,0000.0,0008.70,0002.81,0001.33
2021-12-27 12:48:00,,0816.8,4.99,0.00,21.9,21.2,00.0,30.9,23.4,09.8,0000.0,0008.78,0002.85,0001.35
2021-12-27 12:49:00,,0816.9,5.00,0.00,21.9,21.1,00.0,30.9,23.4,09.9,0000.0,0008.65,0002.88,0001.36
2021-12-27 12:50:00,,0816.8,5.01,0.00,21.8,21.1,00.0,30.9,23.4,10.0,0000.0,0008.16,0002.89,0001.36
2021-12-27 12:51:00,,0816.9,4.99,0.00,21.9,21.2,00.0,30.9,23.5,10.0,0000.0,0008.05,0002.89,0001.36
2021-12-27 12:52:00,,0817.0,5.01,0.00,21.9,22.0,00.0,30.9,23.7,10.1,0000.0,0008.01,0002.81,0001.36
2021-12-27 12:53:00,,0816.8,5.01,0.00,22.1,22.8,00.0,31.0,24.0,10.1,0000.0,0008.31,0002.71,0001.34
2021-12-27 12:54:00,,0816.9,5.00,0.00,22.2,23.0,00.0,31.0,24.2,10.0,0000.0,0008.52,0002.66,0001.32
2021-12-27 12:55:00,,0816.9,4.99,0.00,22.3,22.8,00.0,31.0,24.2,10.0,0000.0,0008.32,0002.59,0001.31
2021-12-27 12:56:00,,0817.0,5.01,0.00,22.3,22.6,00.0,31.1,24.1,10.0,0000.0,0008.70,0002.57,0001.29
2021-12-27 12:57:00,,0817.2,4.99,0.00,22.3,22.4,00.0,31.1,24.1,10.0,0000.0,0009.24,0002.60,0001.27
2021-12-27 12:58:00,,0816.9,5.01,0.00,22.3,22.2,00.0,31.1,24.0,09.9,0000.0,0009.18,0002.57,0001.26
2021-12-27 12:59:00,,0816.8,5.01,0.00,22.2,22.0,00.0,31.1,23.9,09.9,0000.0,0008.92,0002.46,0001.23
